Fairbanks, AK

10:38 PM AKST on December 09, 2019 (GMT -0900)
Fairbanks International

Weather History for PAFA - May, 2019

Change the Weather History Date:

Thursday, May 2, 2019

  Actual Average Record
Temperature  
Mean Temperature 48 °F 43 °F  
Max Temperature 58 °F 55 °F 78 °F (1995)
Min Temperature 37 °F 32 °F 5 °F (1945)
Degree Days  
Heating Degree Days 17 22  
Month to date heating degree days 29 44  
Since 1 July heating degree days 11291 13068  
Cooling Degree Days 0 0  
Month to date cooling degree days 0 0  
Year to date cooling degree days 0 0  
Moisture  
Dew Point 25 °F    
Average Humidity 40    
Maximum Humidity 79    
Minimum Humidity 19    
Precipitation  
Precipitation 0.03 in 0.01 in 0.42 in (2016)
Month to date precipitation 0.03 0.03  
Year to date precipitation 2.51 1.59  
Snow  
Snow 0.00 in 0.00 in 1.80 in (2002)
Month to date snowfall 0.0 0.1  
Since 1 July snowfall 57.5 64.2  
Snow Depth 0.00 in    
Sea Level Pressure  
Sea Level Pressure 29.85 in    
Wind  
Wind Speed 9 mph (NNE)    
Max Wind Speed 22 mph    
Max Gust Speed 25 mph    
Visibility 10 miles    
Events Rain    
T = Trace of Precipitation, MM = Missing Value Source: NWS Daily Summary

Daily Weather History Graph

Daily Weather History Graph

Search for Another Location

Airport or City:

Astronomy

May. 02, 2019 Rise Set
Actual Time 5:15 AM AKDT 10:24 PM AKDT
Civil Twilight 4:00 AM AKDT 11:40 PM AKDT
Nautical Twilight 2:20 AM AKDT Sun does not rise
Astronomical Twilight Sun does not rise Sun does not rise
Moon 6:02 AM AKDT (5/2) 7:02 PM AKDT (5/2)
Length of Visible Light 19h 40m
Length of Day
17h 09m
Waning Crescent, 5% of the Moon is Illuminated
May 2
Waning Crescent
May 4
New
May 11
First Quarter
May 18
Full
May 26
Last Quarter

Hourly Weather History & Observations

Time (AKDT) Temp. Windchill Dew Point Humidity Pressure Visibility Wind Dir Wind Speed Gust Speed Precip Events Conditions
12:53 AM 48.9 °F - 26.1 °F 41% 29.92 in 10.0 mi North 6.9 mph - N/A   Partly Cloudy
1:53 AM 48.9 °F - 25.0 °F 39% 29.92 in 10.0 mi North 8.1 mph - N/A   Partly Cloudy
2:53 AM 46.0 °F 44.8 °F 25.0 °F 44% 29.91 in 10.0 mi NNE 3.5 mph - N/A   Partly Cloudy
3:53 AM 44.1 °F 40.1 °F 25.0 °F 47% 29.91 in 10.0 mi East 6.9 mph - N/A   Mostly Cloudy
4:53 AM 39.0 °F 33.4 °F 24.1 °F 55% 29.91 in 10.0 mi NNE 8.1 mph - N/A   Scattered Clouds
5:53 AM 42.1 °F 37.7 °F 24.1 °F 49% 29.90 in 10.0 mi NNE 6.9 mph - N/A   Scattered Clouds
6:53 AM 44.1 °F 39.0 °F 24.1 °F 45% 29.89 in 10.0 mi North 9.2 mph - N/A   Scattered Clouds
7:53 AM 46.0 °F 43.9 °F 25.0 °F 44% 29.89 in 10.0 mi NE 4.6 mph - N/A   Partly Cloudy
8:53 AM 50.0 °F - 24.1 °F 36% 29.88 in 10.0 mi NE 5.8 mph - N/A   Scattered Clouds
9:53 AM 53.1 °F - 23.0 °F 31% 29.86 in 10.0 mi ENE 6.9 mph - N/A   Mostly Cloudy
10:53 AM 55.0 °F - 18.0 °F 23% 29.85 in 10.0 mi ENE 12.7 mph - N/A   Mostly Cloudy
11:53 AM 57.9 °F - 21.0 °F 24% 29.84 in 10.0 mi NNE 16.1 mph - N/A   Mostly Cloudy
12:53 PM 55.0 °F - 21.9 °F 28% 29.82 in 10.0 mi NE 16.1 mph - N/A   Mostly Cloudy
1:53 PM 53.1 °F - 21.9 °F 30% 29.81 in 10.0 mi NE 15.0 mph 25.3 mph N/A   Mostly Cloudy
2:53 PM 55.0 °F - 24.1 °F 30% 29.81 in 10.0 mi NNE 17.3 mph - N/A   Mostly Cloudy
3:53 PM 53.1 °F - 24.1 °F 32% 29.79 in 10.0 mi NE 17.3 mph - N/A   Mostly Cloudy
4:53 PM 51.1 °F - 23.0 °F 33% 29.79 in 10.0 mi NNE 16.1 mph - N/A   Overcast
5:53 PM 50.0 °F - 21.0 °F 32% 29.78 in 10.0 mi North 21.9 mph - 0.00 in Rain Light Rain
6:53 PM 48.0 °F - 23.0 °F 37% 29.79 in 10.0 mi North 12.7 mph - 0.00 in Rain Light Rain
7:53 PM 48.0 °F - 25.0 °F 41% 29.80 in 10.0 mi NNE 15.0 mph - 0.00 in Rain Light Rain
8:53 PM 46.9 °F - 27.0 °F 46% 29.81 in 10.0 mi North 9.2 mph - 0.00 in Rain Light Rain
9:53 PM 44.1 °F 39.0 °F 28.9 °F 55% 29.83 in 10.0 mi North 9.2 mph - 0.00 in Rain Light Rain
10:53 PM 39.9 °F 32.5 °F 32.0 °F 73% 29.85 in 10.0 mi NW 12.7 mph - 0.00 in Rain Light Rain
11:53 PM 37.9 °F 31.5 °F 32.0 °F 79% 29.87 in 10.0 mi NNW 9.2 mph - 0.01 in Rain Light Rain